Location: Rowland
(34.5359°N, 79.2929°W)
Time: 19:18:51
(UTC+00:00)

Vanguard 2 - Pass Details

Date: 09 October 2022
Orbit: 553 x 2933 km, 32.9° (Epoch: 06 December)

Event Time Altitude Azimuth Distance (km) Brightness Sun altitude
Rises 22:50:05 0° 281° (WNW) 5,851 13.7 -0.8°
Reaches altitude 10° 22:54:02 10° 274° (W) 5,116 13.6 -1.6°
Maximum altitude 23:07:40 37° 215° (SW) 3,917 11.6 -4.4°
Drops below altitude 10° 23:22:50 10° 156° (SSE) 5,626 11.7 -7.5°
Sets 23:27:31 0° 149° (SSE) 6,472 12.0 -8.5°
